Regional Weather Roundup
Issued by NWS

Home | Current Version | Previous Version | Text Only | Print | Product List | Glossary Off
Versions: 1 2 3 4 5 6 7 8 9 10 11 12 13 14 15 16 17 18 19 20 21 22 23 24 25 26 27

000
ASUS45 KTFX 260310
RWRMT
MONTANA REGIONAL WEATHER ROUNDUP
NATIONAL WEATHER SERVICE GREAT FALLS MT
800 PM MST SAT FEB 25 2017

NOTE: "FAIR" INDICATES FEW OR NO CLOUDS BELOW 12000 FEET WITH NO
SIGNIFICANT WEATHER AND/OR OBSTRUCTIONS TO VISIBILITY.

MTZ001>007-043-260400-
WEST OF THE DIVIDE

CITY           SKY/WX    TMP DP  RH WIND       PRES   REMARKS
KALISPELL      CLOUDY    27  17  66 S10       29.82S WCI  17
MISSOULA       CLOUDY    28  15  58 NW6       29.87F WCI  22
BUTTE          CLOUDY    20   4  50 W10       29.76S WCI   9
MULLAN PASS    LGT SNOW  14  12  92 VRB7      29.72F FOG     WCI   4
ANACONDA         N/A     21   3  45 W8        29.78F WCI  12
DEER LODGE       N/A     25   5  42 CALM      29.80S
EUREKA           N/A     28  16  59 E6        29.81F WCI  22
HAMILTON         N/A     28  10  47 S9        29.86  WCI  20
LIBBY            N/A     28  16  59 E5        29.82F
RONAN            N/A     29  16  58 SE3       29.90F
$$

MTZ008-052>055-260400-
SOUTHWEST MONTANA

CITY           SKY/WX    TMP DP  RH WIND       PRES   REMARKS
BOZEMAN        PTCLDY    22   9  57 SW7       29.78S WCI  13
DILLON         CLEAR     21   9  59 SW20      29.77S WCI   6
W YELLOWSTONE  CLOUDY    10   5  79 SW13G24   29.77S HAZE    WCI  -5
ENNIS          CLOUDY    19   9  63 SE8       29.82F WCI   9
THREE FORKS      N/A     27  27 100 W6        29.79S WCI  21
$$

MTZ009-010-012-014-046-048-049-054-260400-
EAST SLOPES AND CENTRAL MONTANA

CITY           SKY/WX    TMP DP  RH WIND       PRES   REMARKS
CUT BANK       CLOUDY    24  13  62 W32G43    29.55F WCI   6
GREAT FALLS    CLOUDY    24   9  52 SW15      29.64S WCI  11
MALMSTROM AFB  MOCLDY    26  11  54 SW15      29.66S WCI  14
HELENA         CLOUDY    28   9  44 W14       29.76S WCI  17
AUGUSTA          N/A     24   7  47 W31G39    29.60F WCI   7
BOWMANS CRNR     N/A     22   8  54 SW12      29.63S WCI  11
CHOTEAU          N/A     27   9  46 SW12G23   29.60F WCI  16
CONRAD           N/A     26  14  60 SW12      29.64F WCI  16
POWER            N/A     25   7  47 SW23      29.61S WCI  10
RAYNESFORD       N/A     25  10  52 W20G26    29.64S WCI  11
ULM              N/A     26  10  51 MISG      29.67S
$$

MTZ011-013-016-021-045-047-050-051-260400-
NORTH CENTRAL MONTANA

CITY           SKY/WX    TMP DP  RH WIND       PRES   REMARKS
HAVRE          CLOUDY    30  19  63 W14       29.60F WCI  19
LEWISTOWN      CLOUDY    21   8  57 SW12      29.61F WCI   9
N BAR RANCH    MOCLDY    14   5  67 W3        29.63S
CHINOOK          N/A     25  19  80 CALM      29.61F
DENTON         MOCLDY    26  11  53 W21       29.59S WCI  12
FORT BENTON      N/A     28  10  47 N10       29.66R WCI  19
GEYSER           N/A     24  10  53 W9        29.61S WCI  15
GRASS RANGE      N/A     25  11  56 W14       29.58F WCI  13
JUDITH GAP     MOCLDY    20   3  46 SW9       29.61F WCI   9
ROY            MOCLDY    26  14  59 MISG      29.60F
STANFORD         N/A     24   8  49 W22       29.60F WCI   9
WINIFRED         N/A     22  13  66 W9        29.60F WCI  12
$$

MTZ017>020-022>027-061-062-260400-
NORTHEAST MONTANA

CITY           SKY/WX    TMP DP  RH WIND       PRES   REMARKS
GLASGOW        CLOUDY    18  14  84 E12       29.65F WCI   5
JORDAN           N/A     26  20  77 CALM      29.64F
SIDNEY         MOCLDY    15  12  88 CALM      29.71R
WOLF POINT     CLOUDY    16  12  84 E5        29.70F
PLENTYWOOD       N/A      7   5  92 N3        29.68S
POPLAR           N/A     12   9  85 E6        29.71F WCI   3
$$

MTZ028>42-056>058-260400-
SOUTHCENTRAL AND SOUTHEAST MONTANA

CITY           SKY/WX    TMP DP  RH WIND       PRES   REMARKS
BAKER          PTCLDY    22  16  78 W10       29.65F WCI  11
BILLINGS       PTCLDY    25  13  60 W16       29.68S WCI  12
LIVINGSTON     CLOUDY    24   9  52 W21G33    29.71S WCI   9
MILES CITY     MOCLDY    26  19  74 W3        29.67F
BIG TIMBER     MOCLDY    23  14  68 W33G48    29.65S HAZE    WCI   5
FORSYTH          N/A     28  16  59 CALM      29.67F
HARLOWTON      MOCLDY    23  10  56 W21       29.64F WCI   8
LAUREL           N/A     27   9  46 W12       29.69S WCI  17
$$

REGIONAL REPORTS...DAKOTAS

CITY           SKY/WX    TMP DP  RH WIND       PRES   REMARKS
WILLISTON      CLEAR      8   5  87 N5        29.70S
MINOT          LGT SNOW  16  11  80 NW8       29.69R WCI   5
DICKINSON      PTCLDY    19  15  84 W10       29.61S WCI   7
BEACH            N/A    N/A N/A N/A MISG        N/A
CROSBY           N/A     10   9  92 N3        29.72S
TIOGA            N/A      7   7 100 NE5       29.68S
WATFORD CITY     N/A     10   9  92 N7        29.69R WCI   0
BISMARCK       CLOUDY    22  18  85 VRB3      29.66F
GRAND FORKS    CLOUDY    20  10  65 N13       29.74F WCI   7
FARGO          CLOUDY    25  21  85 W6        29.73F WCI  18
BUFFALO SD       N/A     21  17  84 W10       29.60F WCI  10
RAPID CITY     CLEAR     20  17  88 NW9       29.70S WCI   9
$$

REGIONAL REPORTS...WYOMING/IDAHO/WASHINGTON

CITY           SKY/WX    TMP DP  RH WIND       PRES   REMARKS
GILLETTE       MOCLDY    21  18  88 N3        29.69R
SHERIDAN       CLOUDY    22  15  75 SE15      29.69F WCI   9
BUFFALO WY     PTCLDY    20  13  74 NW9       29.67S WCI   9
YELLOWSTONE LA   N/A      0  -3  87 CALM      29.74S
IDAHO FALLS    CLEAR     18  12  77 S14       29.92F WCI   4
SALMON         CLOUDY    27  14  59 W3        29.87F
BOISE          MOCLDY    31  18  58 E7        30.00S WCI  24
SPOKANE        CLOUDY    32  22  66 S12       29.87F WCI  23
$$

REGIONAL REPORTS...ALBERTA

CITY           SKY/WX    TMP DP  RH WIND       PRES   REMARKS
EDMONTON       LGT SNOW  19  18  93 NW7       29.66R WCI  10
CALGARY        LGT SNOW  21  18  86 N10       29.59R FOG     WCI  10
MEDICINE HAT   PTCLDY    23  18  80 NE2       29.59R
WATERTON GATE    N/A     23  10  58 SW31G46     N/A  WCI   5
CARDSTON         N/A     27  10  50 W20G32      N/A  WCI  13
MILK RIVER       N/A     27  16  63 W13         N/A  WCI  16
$$

REGIONAL REPORTS...SASKATCHEWAN

CITY           SKY/WX    TMP DP  RH WIND       PRES   REMARKS
SWIFT CURRENT  FLURRIES  16  12  86 SE5       29.59S
REGINA         CLEAR      9   3  78 SE6       29.67F WCI  -1
SASKATOON      FLURRIES  16  12  86 SW9       29.65F WCI   4
CYPRESS HILLS    N/A     16   7  67 SW1         N/A
VAL MARIE        N/A     14  10  85 SE9         N/A  WCI   2
ROCKGLEN         N/A      5   3  92 S2          N/A
$$




USA.gov is the U.S. government's official web portal to all federal, state and local government web resources and services.